DEVICE NETWORK
Gateway Status
13 ESP · realtime ~1s · history 60s
Weather
WS-MOD-01
ONLINE
Actuator
ACT-MOD-01
OFFLINE
Mainboard L3
MB-L3-01
ONLINE
Mainboard L5
MB-L5-01
ONLINE
Remote AC
AC-REMOTE-01
ONLINE
PZEM L3-01
PWR-L3-01
OFFLINE
PZEM L3-02
PWR-L3-02
OFFLINE
PZEM L3-03
PWR-L3-03
OFFLINE
PZEM L3-04
PWR-L3-04
OFFLINE
PZEM L5-01
PWR-L5-01
ONLINE
PZEM L5-02
PWR-L5-02
ONLINE
PZEM L5-03
PWR-L5-03
OFFLINE
PZEM L5-04
PWR-L5-04
OFFLINE
REPORT FILTER
DATABASE HISTORY
Periode & Sensor
REPORT RESULT
Data Sensor
01/09/2026 — 07/09/2026
EXPORT CSV
| NO | TANGGAL | WAKTU | DEVICE | CHANNEL | SENSOR | VALUE | UNIT |
|---|---|---|---|---|---|---|---|
| 201 | 07/09/2026 | 02:38:00 | MB-L5-01Mainboard Lantai 5 | L5-SHT-01-T | SHT20 1 Temperature | 28.10 | °C |
| 202 | 07/09/2026 | 02:38:00 | MB-L5-01Mainboard Lantai 5 | L5-HFT-02 | Heat Flow Temperature 2 | 22.00 | °C |
| 203 | 07/09/2026 | 02:38:00 | PWR-L5-01Power Meter L5 PZEM 01 | PZEM-L5-01-CURR | PZEM L5-01 Current | 0.13 | A |
| 204 | 07/09/2026 | 02:37:00 | AC-REMOTE-01Remote AC | AC-FAN | AC Fan Speed | 0.00 | code |
| 205 | 07/09/2026 | 02:37:00 | AC-REMOTE-01Remote AC | AC-SETPOINT | AC Set Temperature | 23.00 | °C |
| 206 | 07/09/2026 | 02:37:00 | MB-L5-01Mainboard Lantai 5 | L5-LUX-06 | Illuminance / LUX 6 | 0.10 | lux |
| 207 | 07/09/2026 | 02:37:00 | AC-REMOTE-01Remote AC | AC-MODE | AC Operating Mode | 1.00 | code |
| 208 | 07/09/2026 | 02:37:00 | PWR-L5-02Power Meter L5 PZEM 02 | PZEM-L5-02-ENERGY | PZEM L5-02 Energy | 0.04 | kWh |
| 209 | 07/09/2026 | 02:37:00 | AC-REMOTE-01Remote AC | AC-POWER | AC Power State | 1.00 | state |
| 210 | 07/09/2026 | 02:37:00 | WS-MOD-01Weather Station Module | WS-RH | Kelembapan Udara | 80.80 | %RH |
| 211 | 07/09/2026 | 02:37:00 | MB-L5-01Mainboard Lantai 5 | L5-ST-01 | Surface Temperature 1 | 23.20 | °C |
| 212 | 07/09/2026 | 02:37:00 | PWR-L5-02Power Meter L5 PZEM 02 | PZEM-L5-02-POWER | PZEM L5-02 Active Power | 0.00 | W |
| 213 | 07/09/2026 | 02:37:00 | MB-L5-01Mainboard Lantai 5 | L5-AI-05 | Analog Input 5 | 3.05 | V |
| 214 | 07/09/2026 | 02:37:00 | MB-L3-01Mainboard Lantai 3 | L3-AI-02 | Analog Input 2 | 3.12 | V |
| 215 | 07/09/2026 | 02:37:00 | MB-L5-01Mainboard Lantai 5 | L5-SHT-02-T | SHT20 2 Temperature | 28.60 | °C |
| 216 | 07/09/2026 | 02:37:00 | MB-L5-01Mainboard Lantai 5 | L5-BGT-01 | Black Globe Temperature 1 | 26.40 | °C |
| 217 | 07/09/2026 | 02:37:00 | MB-L3-01Mainboard Lantai 3 | L3-LUX-06 | Illuminance / LUX 6 | 0.30 | lux |
| 218 | 07/09/2026 | 02:37:00 | WS-MOD-01Weather Station Module | WS-TEMP | Suhu Udara | 18.70 | °C |
| 219 | 07/09/2026 | 02:37:00 | PWR-L5-02Power Meter L5 PZEM 02 | PZEM-L5-02-CURR | PZEM L5-02 Current | 0.00 | A |
| 220 | 07/09/2026 | 02:37:00 | PWR-L5-01Power Meter L5 PZEM 01 | PZEM-L5-01-POWER | PZEM L5-01 Active Power | 10.60 | W |
| 221 | 07/09/2026 | 02:37:00 | MB-L3-01Mainboard Lantai 3 | L3-LUX-04 | Illuminance / LUX 4 | 0.10 | lux |
| 222 | 07/09/2026 | 02:37:00 | MB-L5-01Mainboard Lantai 5 | L5-HFT-01 | Heat Flow Temperature 1 | 23.00 | °C |
| 223 | 07/09/2026 | 02:37:00 | MB-L3-01Mainboard Lantai 3 | L3-SHT-03-T | SHT20 3 Temperature | 28.60 | °C |
| 224 | 07/09/2026 | 02:37:00 | MB-L3-01Mainboard Lantai 3 | L3-LUX-05 | Illuminance / LUX 5 | 0.30 | lux |
| 225 | 07/09/2026 | 02:37:00 | MB-L3-01Mainboard Lantai 3 | L3-RAD-01 | Radiation 1 | 1.00 | W/m² |
| 226 | 07/09/2026 | 02:37:00 | WS-MOD-01Weather Station Module | WS-WIND | Kecepatan Angin | 7.81 | m/s |
| 227 | 07/09/2026 | 02:37:00 | PWR-L5-02Power Meter L5 PZEM 02 | PZEM-L5-02-VOLT | PZEM L5-02 Voltage | 226.80 | V |
| 228 | 07/09/2026 | 02:37:00 | PWR-L5-01Power Meter L5 PZEM 01 | PZEM-L5-01-PF | PZEM L5-01 Power Factor | 0.37 | |
| 229 | 07/09/2026 | 02:37:00 | MB-L5-01Mainboard Lantai 5 | L5-RAD-01 | Radiation 1 | 1.00 | W/m² |
| 230 | 07/09/2026 | 02:37:00 | MB-L5-01Mainboard Lantai 5 | L5-BGT-03 | Black Globe Temperature 3 | 26.00 | °C |
| 231 | 07/09/2026 | 02:37:00 | MB-L5-01Mainboard Lantai 5 | L5-AI-02 | Analog Input 2 | 3.05 | V |
| 232 | 07/09/2026 | 02:37:00 | MB-L3-01Mainboard Lantai 3 | L3-AI-04 | Analog Input 4 | 3.12 | V |
| 233 | 07/09/2026 | 02:37:00 | MB-L3-01Mainboard Lantai 3 | L3-LUX-02 | Illuminance / LUX 2 | 0.20 | lux |
| 234 | 07/09/2026 | 02:37:00 | PWR-L5-01Power Meter L5 PZEM 01 | PZEM-L5-01-VOLT | PZEM L5-01 Voltage | 226.90 | V |
| 235 | 07/09/2026 | 02:37:00 | MB-L3-01Mainboard Lantai 3 | L3-LUX-03 | Illuminance / LUX 3 | 0.20 | lux |
| 236 | 07/09/2026 | 02:37:00 | MB-L5-01Mainboard Lantai 5 | L5-SHT-02-RH | SHT20 2 Humidity | 46.00 | %RH |
| 237 | 07/09/2026 | 02:37:00 | MB-L3-01Mainboard Lantai 3 | L3-AI-01 | Analog Input 1 | 3.12 | V |
| 238 | 07/09/2026 | 02:37:00 | MB-L5-01Mainboard Lantai 5 | L5-RAD-02 | Radiation 2 | 1.00 | W/m² |
| 239 | 07/09/2026 | 02:37:00 | MB-L5-01Mainboard Lantai 5 | L5-LUX-03 | Illuminance / LUX 3 | 0.20 | lux |
| 240 | 07/09/2026 | 02:37:00 | MB-L3-01Mainboard Lantai 3 | L3-SHT-02-RH | SHT20 2 Humidity | 45.70 | %RH |
| 241 | 07/09/2026 | 02:37:00 | MB-L3-01Mainboard Lantai 3 | L3-SHT-01-RH | SHT20 1 Humidity | 46.70 | %RH |
| 242 | 07/09/2026 | 02:37:00 | MB-L5-01Mainboard Lantai 5 | L5-AI-04 | Analog Input 4 | 3.05 | V |
| 243 | 07/09/2026 | 02:37:00 | MB-L3-01Mainboard Lantai 3 | L3-SHT-01-T | SHT20 1 Temperature | 28.20 | °C |
| 244 | 07/09/2026 | 02:37:00 | MB-L5-01Mainboard Lantai 5 | L5-LUX-02 | Illuminance / LUX 2 | 0.10 | lux |
| 245 | 07/09/2026 | 02:37:00 | PWR-L5-01Power Meter L5 PZEM 01 | PZEM-L5-01-ENERGY | PZEM L5-01 Energy | 0.09 | kWh |
| 246 | 07/09/2026 | 02:37:00 | MB-L5-01Mainboard Lantai 5 | L5-ST-02 | Surface Temperature 2 | 22.40 | °C |
| 247 | 07/09/2026 | 02:37:00 | MB-L5-01Mainboard Lantai 5 | L5-LUX-01 | Illuminance / LUX 1 | 0.00 | lux |
| 248 | 07/09/2026 | 02:37:00 | MB-L3-01Mainboard Lantai 3 | L3-AI-06 | Analog Input 6 | 3.12 | V |
| 249 | 07/09/2026 | 02:37:00 | MB-L5-01Mainboard Lantai 5 | L5-SHT-03-T | SHT20 3 Temperature | 28.50 | °C |
| 250 | 07/09/2026 | 02:37:00 | MB-L5-01Mainboard Lantai 5 | L5-AI-06 | Analog Input 6 | 3.05 | V |
| 251 | 07/09/2026 | 02:37:00 | MB-L5-01Mainboard Lantai 5 | L5-BGT-02 | Black Globe Temperature 2 | 26.30 | °C |
| 252 | 07/09/2026 | 02:37:00 | MB-L5-01Mainboard Lantai 5 | L5-AI-01 | Analog Input 1 | 3.05 | V |
| 253 | 07/09/2026 | 02:37:00 | MB-L3-01Mainboard Lantai 3 | L3-AI-03 | Analog Input 3 | 3.12 | V |
| 254 | 07/09/2026 | 02:37:00 | MB-L5-01Mainboard Lantai 5 | L5-SHT-01-T | SHT20 1 Temperature | 28.20 | °C |
| 255 | 07/09/2026 | 02:37:00 | MB-L5-01Mainboard Lantai 5 | L5-HFT-02 | Heat Flow Temperature 2 | 22.00 | °C |
| 256 | 07/09/2026 | 02:37:00 | PWR-L5-01Power Meter L5 PZEM 01 | PZEM-L5-01-CURR | PZEM L5-01 Current | 0.13 | A |
| 257 | 07/09/2026 | 02:37:00 | MB-L5-01Mainboard Lantai 5 | L5-SHT-01-RH | SHT20 1 Humidity | 47.00 | %RH |
| 258 | 07/09/2026 | 02:37:00 | MB-L5-01Mainboard Lantai 5 | L5-SHT-03-RH | SHT20 3 Humidity | 46.50 | %RH |
| 259 | 07/09/2026 | 02:37:00 | WS-MOD-01Weather Station Module | WS-DIR | Arah Angin | 88.50 | ° |
| 260 | 07/09/2026 | 02:37:00 | MB-L3-01Mainboard Lantai 3 | L3-LUX-01 | Illuminance / LUX 1 | 0.20 | lux |
| 261 | 07/09/2026 | 02:37:00 | MB-L3-01Mainboard Lantai 3 | L3-SHT-03-RH | SHT20 3 Humidity | 45.80 | %RH |
| 262 | 07/09/2026 | 02:37:00 | MB-L5-01Mainboard Lantai 5 | L5-AI-03 | Analog Input 3 | 3.05 | V |
| 263 | 07/09/2026 | 02:37:00 | PWR-L5-02Power Meter L5 PZEM 02 | PZEM-L5-02-PF | PZEM L5-02 Power Factor | 0.00 | |
| 264 | 07/09/2026 | 02:37:00 | MB-L5-01Mainboard Lantai 5 | L5-LUX-04 | Illuminance / LUX 4 | 0.10 | lux |
| 265 | 07/09/2026 | 02:37:00 | MB-L3-01Mainboard Lantai 3 | L3-RAD-02 | Radiation 2 | 0.00 | W/m² |
| 266 | 07/09/2026 | 02:37:00 | PWR-L5-01Power Meter L5 PZEM 01 | PZEM-L5-01-FREQ | PZEM L5-01 Frequency | 50.00 | Hz |
| 267 | 07/09/2026 | 02:37:00 | PWR-L5-02Power Meter L5 PZEM 02 | PZEM-L5-02-FREQ | PZEM L5-02 Frequency | 50.00 | Hz |
| 268 | 07/09/2026 | 02:37:00 | MB-L3-01Mainboard Lantai 3 | L3-AI-05 | Analog Input 5 | 3.12 | V |
| 269 | 07/09/2026 | 02:37:00 | MB-L3-01Mainboard Lantai 3 | L3-SHT-02-T | SHT20 2 Temperature | 28.40 | °C |
| 270 | 07/09/2026 | 02:37:00 | WS-MOD-01Weather Station Module | WS-PRES | Tekanan Udara | 910.00 | hPa |
| 271 | 07/09/2026 | 02:36:00 | PWR-L5-01Power Meter L5 PZEM 01 | PZEM-L5-01-PF | PZEM L5-01 Power Factor | 0.37 | |
| 272 | 07/09/2026 | 02:36:00 | MB-L5-01Mainboard Lantai 5 | L5-RAD-01 | Radiation 1 | 1.00 | W/m² |
| 273 | 07/09/2026 | 02:36:00 | MB-L5-01Mainboard Lantai 5 | L5-BGT-03 | Black Globe Temperature 3 | 26.10 | °C |
| 274 | 07/09/2026 | 02:36:00 | MB-L5-01Mainboard Lantai 5 | L5-AI-02 | Analog Input 2 | 3.05 | V |
| 275 | 07/09/2026 | 02:36:00 | MB-L3-01Mainboard Lantai 3 | L3-AI-04 | Analog Input 4 | 3.12 | V |
| 276 | 07/09/2026 | 02:36:00 | MB-L3-01Mainboard Lantai 3 | L3-LUX-02 | Illuminance / LUX 2 | 0.20 | lux |
| 277 | 07/09/2026 | 02:36:00 | PWR-L5-01Power Meter L5 PZEM 01 | PZEM-L5-01-VOLT | PZEM L5-01 Voltage | 226.90 | V |
| 278 | 07/09/2026 | 02:36:00 | MB-L3-01Mainboard Lantai 3 | L3-LUX-03 | Illuminance / LUX 3 | 0.20 | lux |
| 279 | 07/09/2026 | 02:36:00 | MB-L5-01Mainboard Lantai 5 | L5-SHT-02-RH | SHT20 2 Humidity | 45.90 | %RH |
| 280 | 07/09/2026 | 02:36:00 | MB-L3-01Mainboard Lantai 3 | L3-AI-01 | Analog Input 1 | 3.12 | V |
| 281 | 07/09/2026 | 02:36:00 | MB-L5-01Mainboard Lantai 5 | L5-RAD-02 | Radiation 2 | 1.00 | W/m² |
| 282 | 07/09/2026 | 02:36:00 | MB-L5-01Mainboard Lantai 5 | L5-LUX-03 | Illuminance / LUX 3 | 0.20 | lux |
| 283 | 07/09/2026 | 02:36:00 | MB-L3-01Mainboard Lantai 3 | L3-SHT-02-RH | SHT20 2 Humidity | 45.80 | %RH |
| 284 | 07/09/2026 | 02:36:00 | MB-L3-01Mainboard Lantai 3 | L3-SHT-01-RH | SHT20 1 Humidity | 46.50 | %RH |
| 285 | 07/09/2026 | 02:36:00 | MB-L5-01Mainboard Lantai 5 | L5-AI-04 | Analog Input 4 | 3.05 | V |
| 286 | 07/09/2026 | 02:36:00 | MB-L3-01Mainboard Lantai 3 | L3-SHT-01-T | SHT20 1 Temperature | 28.20 | °C |
| 287 | 07/09/2026 | 02:36:00 | MB-L5-01Mainboard Lantai 5 | L5-LUX-02 | Illuminance / LUX 2 | 0.10 | lux |
| 288 | 07/09/2026 | 02:36:00 | PWR-L5-01Power Meter L5 PZEM 01 | PZEM-L5-01-ENERGY | PZEM L5-01 Energy | 0.09 | kWh |
| 289 | 07/09/2026 | 02:36:00 | MB-L5-01Mainboard Lantai 5 | L5-ST-02 | Surface Temperature 2 | 22.40 | °C |
| 290 | 07/09/2026 | 02:36:00 | MB-L5-01Mainboard Lantai 5 | L5-LUX-01 | Illuminance / LUX 1 | 0.00 | lux |
| 291 | 07/09/2026 | 02:36:00 | MB-L3-01Mainboard Lantai 3 | L3-AI-06 | Analog Input 6 | 3.12 | V |
| 292 | 07/09/2026 | 02:36:00 | MB-L5-01Mainboard Lantai 5 | L5-SHT-03-T | SHT20 3 Temperature | 28.50 | °C |
| 293 | 07/09/2026 | 02:36:00 | MB-L5-01Mainboard Lantai 5 | L5-AI-06 | Analog Input 6 | 3.05 | V |
| 294 | 07/09/2026 | 02:36:00 | MB-L5-01Mainboard Lantai 5 | L5-BGT-02 | Black Globe Temperature 2 | 26.30 | °C |
| 295 | 07/09/2026 | 02:36:00 | MB-L5-01Mainboard Lantai 5 | L5-AI-01 | Analog Input 1 | 3.05 | V |
| 296 | 07/09/2026 | 02:36:00 | MB-L3-01Mainboard Lantai 3 | L3-AI-03 | Analog Input 3 | 3.12 | V |
| 297 | 07/09/2026 | 02:36:00 | MB-L5-01Mainboard Lantai 5 | L5-SHT-01-T | SHT20 1 Temperature | 28.20 | °C |
| 298 | 07/09/2026 | 02:36:00 | MB-L5-01Mainboard Lantai 5 | L5-HFT-02 | Heat Flow Temperature 2 | 22.10 | °C |
| 299 | 07/09/2026 | 02:36:00 | PWR-L5-01Power Meter L5 PZEM 01 | PZEM-L5-01-CURR | PZEM L5-01 Current | 0.13 | A |
| 300 | 07/09/2026 | 02:36:00 | MB-L5-01Mainboard Lantai 5 | L5-SHT-01-RH | SHT20 1 Humidity | 46.90 | %RH |
Menampilkan maksimal 100 data per halaman